RH
77 69 70 68 70 71 69 73 94 98 99 100 96 94 93 97 91 98 85 79 64 76 66 70 62 58 53 50 44 48 74 78 59 53 43 31 33 29 21 21 20 20 38 48 45
74 75 70 69 77 64 73 64 81 95 99 99 98 97 95 89 97 88 84 79 77 69 86 76 70 59 62 55 52 60 80 69 51 43 41 33 35 34 29 25 22 25 40 48 51
86 85 82 78 77 72 74 64 68 72 91 100 100 96 91 87 93 82 54 83 84 76 73 77 62 54 64 54 56 58 72 54 50 45 36 40 40 38 34 31 27 27 47 46 48
91 90 81 75 78 79 70 69 72 72 79 96 99 98 83 93 91 71 70 84 79 72 69 69 67 71 68 68 55 60 52 46 43 40 41 38 37 43 39 36 32 35 29 27 37
82 80 76 78 79 82 82 73 69 64 73 91 99 99 90 94 84 63 69 81 78 74 75 73 76 66 67 62 57 54 49 44 43 45 42 39 43 43 46 40 38 36 34 32 32
85 85 84 82 82 86 82 73 72 73 70 86 99 100 89 93 58 57 66 74 75 76 76 76 76 62 57 56 57 46 46 44 45 46 46 47 47 43 40 38 39 38 37 39 35
85 87 84 82 83 83 78 79 80 77 77 90 95 99 82 72 58 62 66 71 74 78 86 78 72 60 57 60 51 50 55 54 51 49 50 43 50 56 41 40 43 44 44 39 38
81 81 85 88 86 87 88 84 82 84 85 91 96 99 78 52 55 61 59 67 67 70 67 69 70 59 61 52 52 59 62 72 52 46 47 49 57 44 43 47 48 46 45 44 37
80 81 86 87 86 87 90 89 86 90 87 90 99 90 66 54 59 57 57 58 60 75 79 70 64 67 58 70 72 67 78 77 66 49 47 57 60 45 38 43 46 45 43 41 39
81 83 87 85 87 86 88 90 64 86 84 93 99 93 68 69 55 52 51 55 66 86 85 84 91 86 78 73 93 74 81 66 62 44 44 48 62 50 44 43 44 42 41 44 43
74 80 87 87 82 92 93 82 79 91 90 84 87 71 61 55 54 53 47 62 80 80 95 88 91 96 83 72 59 60 60 64 58 46 48 49 49 45 40 39 39 34 36 37 35
71 73 75 79 89 88 89 94 90 87 97 82 74 71 55 52 67 59 49 75 83 88 76 85 94 74 72 72 68 65 69 72 58 47 45 52 52 42 39 37 36 33 30 32 33
78 86 84 85 86 73 81 80 80 81 98 88 87 67 61 54 67 71 54 61 78 77 73 80 69 62 70 61 61 61 65 64 64 56 48 56 41 40 38 35 32 30 31 30 30
88 94 96 94 98 78 82 96 96 75 98 99 95 79 59 60 73 52 51 56 65 76 68 68 48 66 72 66 60 69 53 55 58 63 79 57 79 64 47 38 32 33 40 38 35
94 97 98 96 91 89 85 85 83 79 96 98 94 63 63 70 68 66 47 52 71 73 72 81 67 61 70 64 54 63 52 56 58 71 71 70 83 65 52 43 35 31 27 36 39
99 97 96 85 99 94 87 83 93 95 96 99 86 80 78 66 70 64 59 50 51 70 67 60 47 53 56 51 51 54 56 67 75 76 92 69 73 60 41 32 25 21 20 21 24
71 82 94 89 92 92 84 90 93 96 98 99 94 76 76 82 76 73 72 70 83 98 100 74 64 50 50 64 57 58 67 85 83 97 82 63 77 68 42 34 27 26 24 26 24
78 86 96 87 83 81 91 96 91 100 100 79 77 71 89 75 79 75 75 82 68 73 85 90 85 65 53 62 71 66 65 80 70 96 86 61 77 48 36 33 25 26 26 29 30
69 84 95 93 80 85 97 94 98 99 92 90 65 80 81 80 86 73 72 77 69 64 78 89 76 58 55 53 57 72 84 62 81 76 94 76 58 37 30 28 34 34 34 42 44
66 77 89 81 83 84 96 98 100 92 64 60 93 74 86 84 84 76 72 58 57 58 54 65 83 64 59 51 53 60 61 86 92 98 91 76 67 48 35 32 37 35 34 35 39
72 90 69 77 81 92 100 100 92 58 63 61 70 64 59 69 79 75 77 59 54 55 54 53 72 74 65 73 76 76 85 78 78 88 98 95 73 44 34 34 38 41 39 46 51
84 92 67 75 93 97 100 98 89 78 66 61 53 57 58 72 75 71 79 62 52 55 67 52 76 94 83 61 59 65 73 74 90 77 94 92 81 41 41 35 40 37 40 51 58
94 96 77 80 93 97 89 87 80 78 70 56 56 50 56 71 72 60 57 48 53 54 62 54 77 94 80 72 68 73 69 67 68 77 92 93 71 38 43 38 38 48 58 59 58
91 90 87 93 91 86 89 88 74 60 60 54 55 50 52 54 51 66 64 53 51 53 57 55 79 77 86 76 79 85 75 72 76 98 86 80 61 50 47 45 52 65 67 64 68
95 94 91 98 82 79 89 81 74 72 62 53 51 49 54 63 64 74 64 59 59 56 59 62 86 90 82 77 79 80 78 77 88 74 93 66 68 60 56 55 60 77 76 64 65
92 90 82 96 83 78 72 72 78 70 70 64 66 63 54 70 66 74 68 66 64 63 65 67 96 94 95 82 87 92 81 77 73 67 68 68 73 52 56 58 69 84 86 83 79
87 88 96 85 82 73 67 66 64 64 59 62 60 75 81 76 69 61 53 58 61 69 75 78 93 99 97 77 86 96 86 79 73 70 74 91 72 67 75 67 89 94 77 76 75
Wind_Speed
20 19 19 19 18 18 19 20 21 20 19 18 15 13 11 11 11 13 15 13 24 11 8 5 11 14 5 2 3 4 3 5 6 8 5 2 2 5 4 3 1 1 7 7 22
20 19 19 19 17 18 18 18 20 21 21 21 17 14 10 10 11 17 21 19 21 21 12 6 5 8 2 4 3 4 4 7 5 4 2 5 1 3 6 4 2 3 3 17 21
22 21 20 20 16 17 19 19 19 21 22 23 15 13 9 8 6 9 17 26 20 21 19 14 3 4 4 2 4 4 5 7 5 6 2 4 8 2 2 4 3 3 6 6 4
21 18 21 20 20 18 16 19 19 20 22 23 24 16 10 7 7 2 4 28 21 16 21 11 4 3 5 6 5 3 6 7 3 5 2 2 3 2 5 7 4 0 4 4 5
20 18 20 21 20 19 17 15 19 21 21 23 22 16 10 6 8 4 7 22 21 20 17 7 5 5 6 7 4 3 3 5 6 8 4 5 6 7 7 9 9 4 6 7 6
20 19 20 20 20 17 17 18 19 19 21 22 21 11 6 10 11 15 7 23 22 22 14 10 7 7 4 4 7 2 7 5 3 4 4 5 6 5 4 7 9 8 8 9 8
21 19 19 19 18 16 17 16 18 18 20 21 19 12 7 12 5 11 16 23 21 23 7 15 13 4 6 0 4 3 3 3 4 4 4 3 14 8 11 10 9 10 10 10 10
19 18 17 17 15 15 17 18 19 18 19 19 19 12 5 15 10 11 12 13 16 20 15 14 12 3 4 2 3 5 4 1 4 4 6 9 16 3 10 7 11 12 11 10 15
20 19 16 16 16 16 17 17 20 19 17 15 12 7 4 5 11 14 13 8 11 8 12 12 6 2 2 5 3 4 2 4 7 8 6 10 3 14 15 9 9 10 10 12 14
19 19 18 17 17 17 16 20 24 17 8 7 7 2 4 5 13 15 10 8 3 12 7 4 2 3 2 4 6 6 3 3 5 4 3 6 10 11 7 7 9 10 10 10 11
21 19 18 18 15 15 16 11 4 2 3 1 4 4 7 8 16 12 9 7 4 3 4 5 2 5 7 4 2 4 2 3 4 6 5 8 6 10 10 7 10 12 12 12 14
21 20 19 17 13 17 8 0 2 3 3 10 8 7 11 12 9 10 8 4 5 4 8 4 4 7 9 8 6 2 2 5 6 3 4 7 16 14 14 15 15 19 18 16 12
20 19 17 15 12 10 7 5 6 4 1 3 5 5 7 6 4 9 10 3 6 9 4 7 3 6 6 4 3 2 3 2 4 6 1 7 11 8 6 8 13 18 20 16 17
23 23 20 16 7 6 3 4 6 4 2 7 4 4 3 6 4 4 6 4 2 9 6 3 2 6 5 4 4 2 2 3 3 4 4 5 7 6 8 10 7 8 7 11 12
28 24 21 17 9 8 5 6 5 1 3 10 6 3 3 0 14 7 3 3 4 7 5 2 4 6 5 3 4 3 5 4 2 3 4 3 2 8 5 8 8 9 9 9 10
33 21 18 4 5 13 12 8 2 2 1 5 6 8 7 3 3 5 3 4 4 5 7 1 1 3 4 4 5 6 5 6 4 2 2 5 5 5 3 4 5 5 6 6 7
19 15 10 6 4 15 11 2 4 2 3 6 9 10 9 4 6 4 4 4 4 5 4 0 2 1 4 6 4 6 6 3 4 2 6 2 2 8 8 10 4 8 10 10 8
21 25 20 14 14 14 7 1 4 4 2 11 8 13 6 5 7 6 5 3 2 4 3 4 2 5 2 4 5 3 6 4 4 3 4 1 6 6 7 7 4 4 4 7 9
22 25 26 16 15 10 2 5 2 4 4 8 14 10 3 3 6 4 1 4 4 4 5 4 1 2 2 3 6 4 2 3 2 2 3 4 7 9 3 1 6 8 7 8 8
7 9 12 8 4 3 4 5 3 5 14 6 5 1 4 4 4 3 6 4 3 7 2 4 4 2 2 4 2 4 5 3 2 1 4 5 5 7 6 2 6 6 6 7 8
4 3 3 8 2 2 2 3 2 0 2 1 4 4 7 5 5 4 10 3 7 4 6 0 4 3 5 4 7 3 1 3 3 4 3 4 6 6 5 3 6 7 7 7 10
3 3 3 9 3 2 1 2 4 5 3 2 4 5 8 5 4 4 8 4 8 5 6 3 4 3 7 3 4 4 6 5 4 3 3 2 7 6 4 2 6 17 15 12 10
2 2 2 3 3 2 2 3 4 5 4 1 3 4 5 6 5 3 4 4 9 6 8 4 2 2 3 4 2 3 5 5 2 3 6 1 6 2 9 20 20 17 19 18 12
2 3 3 3 0 2 4 4 4 4 3 4 5 11 4 4 1 4 2 4 3 3 8 6 3 5 5 5 3 3 5 7 7 3 3 11 20 26 23 21 20 16 17 17 6
3 2 1 3 3 2 2 2 5 5 5 5 3 3 4 3 4 4 2 3 5 3 3 4 3 2 5 7 5 6 8 8 9 14 8 18 17 25 23 20 18 10 15 14 7
2 3 4 3 5 4 3 1 4 3 5 4 5 3 3 3 3 6 6 3 4 0 3 1 1 2 5 6 8 7 11 12 14 16 17 20 24 23 19 13 9 9 13 14 13
5 4 2 4 5 3 2 1 2 2 3 3 4 5 7 3 3 3 3 7 7 7 3 5 4 2 4 4 5 5 9 11 5 7 7 8 12 12 14 13 4 9 11 13 13
Wind_Direction
321 327 327 325 327 328 326 315 317 320 319 310 246 248 252 255 252 249 232 219 217 166 155 157 201 225 226 234 215 138 120 213 215 174 227 285 16 312 303 236 223 50 154 189 164
314 313 314 316 322 320 325 315 316 314 319 317 247 241 248 257 261 251 230 222 220 207 224 226 184 173 179 196 217 158 167 220 211 200 253 303 308 313 347 305 201 41 17 142 162
308 311 313 311 314 314 317 315 311 307 310 319 305 235 238 251 262 241 242 212 213 207 212 218 235 163 182 163 205 184 201 223 260 275 118 337 312 304 269 276 320 21 179 155 153
312 309 311 312 311 310 306 311 309 308 303 307 302 216 211 218 228 236 235 193 196 177 197 188 145 161 177 195 218 204 202 217 238 266 311 267 262 275 227 238 254 359 308 291 228
321 314 305 308 307 308 306 304 301 301 299 302 307 198 169 219 243 245 183 183 180 188 181 167 153 167 176 181 237 231 257 247 248 270 252 270 239 243 214 266 285 237 217 248 263
320 315 312 311 310 308 305 303 298 295 290 292 298 203 150 221 258 244 206 177 185 179 185 162 179 206 211 187 161 251 215 246 276 247 238 258 247 207 268 234 281 293 264 212 234
326 323 319 313 312 311 307 301 300 291 288 287 276 207 189 214 299 196 177 173 182 184 167 191 221 212 182 153 193 170 167 317 246 228 249 10 274 221 237 258 267 274 271 273 219
328 326 321 318 315 313 306 300 294 289 287 289 273 190 225 230 233 208 170 181 201 196 193 192 213 190 163 161 89 143 78 311 267 264 241 164 251 256 243 244 260 267 275 267 270
331 325 320 320 317 316 312 306 292 286 286 283 292 179 211 197 207 221 196 174 159 183 176 146 138 162 102 126 42 11 172 223 304 215 228 186 244 247 249 232 243 263 265 269 266
330 327 325 320 318 316 314 305 299 282 278 264 246 181 274 185 177 203 197 197 136 126 116 124 76 114 110 137 192 195 181 240 236 312 350 278 255 274 272 227 236 252 260 260 259
328 329 323 321 321 323 326 335 14 87 214 216 161 218 147 153 160 195 175 132 111 151 140 108 126 175 168 222 66 91 134 248 266 278 311 275 269 267 271 277 269 257 250 250 251
321 317 314 316 317 323 321 353 184 121 331 306 197 278 134 135 152 190 160 133 163 139 113 110 161 162 171 209 244 270 259 271 281 256 284 290 284 267 255 254 239 251 258 250 253
323 317 311 311 299 318 319 271 179 103 49 258 220 216 126 118 120 164 157 148 152 135 144 132 204 188 177 169 195 145 178 220 252 322 321 321 276 251 281 263 256 242 244 253 249
320 314 311 307 282 211 278 148 188 197 45 137 190 221 118 133 70 114 175 124 138 145 100 113 162 154 154 186 138 150 85 84 43 38 263 26 290 304 280 292 266 256 253 246 245
314 310 312 304 174 159 190 153 159 216 154 144 157 121 105 31 128 186 28 63 121 115 108 171 172 134 136 196 148 159 94 80 62 59 360 301 245 276 278 287 293 289 248 249 243
317 305 316 319 154 154 164 149 208 46 286 130 136 138 106 81 46 100 38 38 79 95 46 63 294 98 156 80 113 133 72 44 47 54 340 241 192 280 253 243 305 322 315 308 282
32 32 23 94 117 156 156 108 72 186 234 124 133 138 113 103 119 114 157 95 130 140 159 44 18 36 100 83 38 87 71 348 347 354 227 168 214 248 268 269 308 310 300 300 290
46 58 68 80 113 135 153 75 72 337 26 117 122 96 88 122 110 137 122 115 52 84 101 146 299 182 196 156 162 142 140 165 243 235 283 16 237 256 239 285 339 353 299 343 347
63 60 55 68 119 153 293 48 319 322 61 126 98 99 94 70 116 120 105 160 172 173 136 124 351 148 152 131 129 205 148 177 115 324 30 262 297 284 300 64 351 1 22 7 353
30 49 32 59 99 336 48 333 301 221 110 111 75 196 127 113 98 107 169 216 206 194 109 193 103 25 73 83 72 132 157 71 355 32 284 292 284 242 279 315 359 11 360 338 330
26 45 358 348 293 92 48 338 82 85 300 138 144 105 117 125 129 149 188 261 187 209 149 85 102 292 111 206 175 138 232 72 113 153 201 300 255 216 225 182 301 317 294 296 303
56 52 330 347 55 53 305 250 284 280 249 190 106 87 152 134 148 164 191 245 180 150 155 237 111 170 210 223 169 156 181 144 133 247 230 205 266 280 294 61 317 312 306 303 284
89 264 317 345 87 19 304 258 246 15 354 73 126 140 134 158 140 191 152 302 168 156 158 180 36 44 0 38 59 190 198 192 199 130 203 207 262 292 299 317 311 317 314 303 288
49 17 329 42 200 3 354 346 351 347 8 48 91 121 137 158 118 133 114 37 132 132 149 97 155 161 181 203 134 199 199 202 186 185 203 231 283 291 299 302 308 315 318 302 288
17 353 18 312 351 327 307 346 347 8 7 38 71 157 152 113 100 114 112 100 37 75 85 113 189 125 244 240 224 226 228 209 202 234 237 272 278 284 292 301 307 336 336 309 301
34 358 338 288 292 348 311 25 15 350 9 6 99 145 134 94 199 177 134 144 179 212 104 48 239 52 283 261 217 242 241 231 234 247 260 267 274 275 280 289 316 336 326 317 313
353 334 299 297 325 358 257 259 34 49 360 57 162 96 85 116 63 85 145 168 160 148 132 133 128 112 271 322 310 280 230 204 199 212 205 243 256 291 304 313 341 339 329 328 311